Regional Weather Roundup
Issued by NWS Wakefield, VA

Home | Current Version | Previous Version | Text Only | Print | Product List | Glossary Off
Versions: 1 2 3 4 5 6 7 8 9 10 11 12 13 14 15 16 17 18 19 20 21 22 23 24 25 26 27 28 29

000
ASUS41 KAKQ 232015
RWRAKQ

REGIONAL WEATHER ROUNDUP
NATIONAL WEATHER SERVICE WAKEFIELD VA
400 PM EDT TUE AUG 23 2016

Note: "fair" indicates few or no clouds below 12,000 feet with no
significant weather and/or obstructions to visibility. * = Denotes
station may not report precipitation (e.g., rain,snow,etc.),
thunder or fog.

VAZ042-051-052>054-056-232100-
NORTHERN VIRGINIA

CITY           SKY/WX    TMP DP  RH WIND       PRES   REMARKS
WASH NATIONAL  PTSUNNY   81  57  43 S6        30.29F
DULLES         PTSUNNY   83  56  39 VRB6      30.28F
FORT BELVOIR   SUNNY     82  58  44 S6        30.29F
QUANTICO       MOSUNNY   82  58  43 S3        30.30F
FREDERICKSBRG*   N/A     83  62  48 E5        30.28F
STAFFORD*      SUNNY     81  57  44 CALM      30.33F
WARRENTON      SUNNY     83  56  39 SE3       30.29F
CULPEPER*      MOSUNNY   82  65  55 S3        30.30S
MANASSAS*      SUNNY     82  59  44 SE3       30.29F
LEESBURG*      MOSUNNY   86  61  42 SW7       30.30F
WINCHESTER     PTSUNNY   79  61  53 S7        30.29F
FRONT ROYAL*   FAIR      81  63  54 SE5       30.28F
LURAY*         MOCLDY    81  59  47 SE3       30.29F
$$

VAZ048-049-060>072-079>083-232100-
CENTRAL AND SOUTH CENTRAL VIRGINIA

CITY           SKY/WX    TMP DP  RH WIND       PRES   REMARKS
RICHMOND       MOSUNNY   84  59  42 SE8       30.28F
CHESTERFIELD*  CLOUDY    82  54  36 NE6       30.29F
PETERSBURG*    CLOUDY    83  62  47 SE3       30.29F
HANOVER        SUNNY     82  59  45 VRB3      30.30F
TAPPAHANNOCK*  MOSUNNY   84  55  36 N3        30.30F
QUINTON*       FAIR      82  60  45 E7        30.28F
CHARLOTTSVILLE MOSUNNY   83  63  50 SE3       30.29F
GORDONSVILLE*  MOCLDY    82  64  54 SE5       30.28F
ORANGE*          N/A     81  63  54 CALM      30.31F
LOUISA*        MOSUNNY   84  64  51 SE6       30.28F
BUMPASS*       MOCLDY    81  64  56 CALM      30.29F
FARMVILLE*     NOT AVBL
CREWE*         FAIR      85  59  41 SE5       30.28F
FORT PICKETT*  NOT AVBL
CHASE CITY*    CLOUDY    85  56  36 E3        30.28F
CLARKSVILLE*   FAIR      86  59  39 E5        30.27F
SOUTH HILL*    MOSUNNY   84  59  43 CALM      30.33F
LAWRENCEVILLE* CLOUDY    81  62  51 CALM      30.28S
EMPORIA*       MOSUNNY   82  63  51 E6        30.29F
$$

VAZ088>098-232100-
SOUTHEAST VIRGINIA

CITY           SKY/WX    TMP DP  RH WIND       PRES   REMARKS
NORFOLK        SUNNY     80  59  48 NE8       30.29F
VIRGINIA BEACH MOSUNNY   85  55  35 E7        30.28F
NORFOLK NAVAL  MOSUNNY   81  59  47 NE10      30.30F
WEST POINT*    SUNNY     83  53  34 E3        30.30F
SALUDA*        FAIR      80  60  50 E5        30.29F
NEWPORT NEWS   SUNNY     82  58  43 CALM      30.29F
LANGLEY AFB    MOSUNNY   81  59  47 E6        30.28F
FORT EUSTIS    MOSUNNY   88  57  35 VRB5      30.26F
WILLIAMSBURG*  SUNNY     90  59  35 E6        30.29F
HR EXEC AP*    FAIR      84  57  39 E5        30.30F
FRANKLIN*      MOSUNNY   84  58  40 NE7       30.28F
US460-WAKEFLD  SUNNY     82  57  42 CALM      30.28F
$$

VAZ020-022-025-037-045-232100-
WEST CENTRAL AND SOUTHWEST VIRGINIA

CITY           SKY/WX    TMP DP  RH WIND       PRES   REMARKS
STAUNTON*      PTSUNNY   79  61  53 SE9       30.33F
WAYNESBORO*    MOCLDY    79  59  51 S6        30.32F
HOT SPRINGS VA MOSUNNY   71  59  67 S7        30.41S
LYNCHBURG      MOSUNNY   83  58  42 VRB3      30.30F
DANVILLE       SUNNY     84  62  47 CALM      30.27F
SOUTH BOSTON*  FAIR      84  59  42 S5        30.27F
MARTINSVILLE   SUNNY     84  60  44 SE3       30.31F
ROANOKE        PTSUNNY   82  63  52 S12       30.31F
BLACKSBURG     CLOUDY    76  63  63 E7        30.36F HAZE
DUBLIN*        PTSUNNY   82  60  46 SE7       30.34F
MARION*        MOSUNNY   81  59  46 S6        30.36F
HILLSVILLE*    MOSUNNY   77  61  59 SW8       30.36F
RICHLANDS*     MOCLDY    79  62  56 CALM      30.33F
WISE*          PTSUNNY   79  50  36 SW5       30.35F
ABINGDON*      MOSUNNY   85  56  38 SW5       30.30F
$$

MDZ021>025-VAZ099-100-232100-
SOUTHERN MARYLAND AND THE DELMARVA PENINSULA

CITY           SKY/WX    TMP DP  RH WIND       PRES   REMARKS
PATUXENT RIVER MOSUNNY   81  55  40 SE8       30.29F
BAY BRIDGE APT SUNNY     81  57  44 SW6       30.30F
LEONARDTOWN    SUNNY     79  52  38 N3        30.31F
DOVER          SUNNY     79  60  52 VRB1      30.28F
GEORGETOWN     SUNNY     79  53  40 VRB5      30.30F
EASTON         MOSUNNY   82  61  47 VRB5      30.33F
CAMBRIDGE      SUNNY     79  54  41 W3        30.29F
SALISBURY      SUNNY     80  55  42 E6        30.29F
OCEAN CITY     SUNNY     78  57  48 E10       30.30F
WALLOPS ISLAND SUNNY     79  54  41 E10       30.30F
ACCOMACK*      SUNNY     79  54  41 NE8       30.29F
$$

NCZ012>017-030>032-232100-
NORTH CENTRAL AND EASTERN NORTH CAROLINA

CITY           SKY/WX    TMP DP  RH WIND       PRES   REMARKS
ROANOKE RAPIDS FAIR      81  64  57 CALM      30.26F
RALEIGH        MOSUNNY   88  58  36 E8        30.26F
ELIZABETH CITY SUNNY     83  59  44 NE14      30.28F
AHOSKIE*       MOSUNNY   80  63  56 N5        30.27F
EDENTON*       CLOUDY    83  63  50 E5        30.28F
CURRITUCK*       N/A     82  57  42 NE10      30.28F
KILL DEVIL HLS SUNNY     84  65  51 NE7       30.26F
MANTEO         SUNNY     80  61  51 NE13G18   30.27F
CAPE HATTERAS  SUNNY     83  60  45 NE12G21   30.26F
TARBORO*       MOCLDY    87  66  48 NE3       30.27F
GOLDSBORO      MOSUNNY   88  61  40 E8        30.23F
WASHINGTON     MOSUNNY   81  65  57 E3        30.26F
GREENVILLE     CLOUDY    84  64  51 E9        30.26F
NEW BERN       PTSUNNY   84  65  52 NE10      30.26F
WILMINGTON     MOSUNNY   85  64  49 E9        30.23F
$$

VAZ048-232100-
ELSEWHERE

CITY           SKY/WX    TMP DP  RH WIND       PRES   REMARKS
HARRISBURG PA  MOSUNNY   83  60  45 S3        30.27F
BALTIMORE      MOSUNNY   79  57  46 CALM      30.28F
ANNAPOLIS      SUNNY     79  59  50 SE10      30.29F
ANDREWS AFB    MOSUNNY   80  59  47 VRB3      30.29F
PHILADELPHIA   MOSUNNY   82  52  35 SW9       30.28F
HENDERSON NC   SUNNY     80  58  46 E5        30.28F
GREENSBORO     MOSUNNY   84  58  40 CALM      30.27F
ROCKY MOUNT    SUNNY     87  60  40 NE6       30.26F
$$

VAZ100-232100-
MARINE

STATION/POSITION TIME  TEMP    WIND        PRES    WAVE   SWELL
                       AIR SEA DIR/SP/G            HT/PER HT/PER
                 (UTC) (F)     (DEG/KT/KT) (MB)    (FT/S) (FT/S)
BRANDYWINE LGT   1900   72     200/  8/  8   N/A
CAPE MAY NJ      1900   74 72  230/  8/  9 1026.0F
LEWES DE         1900   75 77   50/  5/  7 1026.5F
OCEAN-CITY-INLET 1900   76 73   90/  7/ 10 1026.9F
WACHAPREAGUE VA  1900   76 81   70/  9/ 12 1026.2F
THOMAS POINT MD  2000   77 83  150/  3/  4 1027.3F
GOOSES REEF MD   2000   79 85   60/  2/  4 1026.6F   0
COVE POINT MD    1900   77     170/  1/  3 1027.0F
SOLOMONS ISLAND  1900   78 84  140/  2/  3   N/A
BISHOPS HEAD MD  1900   78 83  120/  4/  4 1026.6F
PINEY POINT MD   1900          190/  6/  7   N/A
POTOMAC MD       2000   78 84  160/  2/  4 1025.1F   0
CAMBRIDGE MD     1900   79 83   80/  3/  5 1025.5F
LEWISETTA VA     1900   77 81  100/  3/  4 1026.1F
RAPPAHANNOCK LGT 1900           10/  8/  9 1026.7F
STINGRAY PT      2000   79 84  330/  4/  6 1026.3F   1
YORKTOWN VA      1900   79 83  100/  5/  7 1025.7F
JAMESTOWN VA     2000   81 86  140/  6/ 10   N/A     0
DOMINION TERM VA 1900   79     120/  5/ 11 1026.2F
KIPTOPEKE VA     1900      78   80/  8/ 13   N/A
CHES BAY BRIDGE  1900   76 77   50/ 10/ 11 1026.0F
CAPE HENRY VA    1900   76      40/  9/ 11   N/A
WILLOUBY STN VA  1900   76      80/  8/ 11   N/A
CAPE HENRY BUOY  1912      80                N/A     3/ 6
1ST LANDING BUOY 2000   77 78   80/  6/  8 1025.5F   1/ 3
CAPE CHARLES BUO 1926      78                N/A     3/ 6
OFFSHORE WE BUOY 1921      81                N/A     4/ 6
64NM E OF VA BCH 1950   77 82   20/ 14/ 16 1024.6F   3/ 7   2/ 7
DUCK PIER NC     1900   77 77   10/ 10/ 14 1025.0F
44100 DUCK FRF   1905      80                N/A     4/ 6
44056 DUCK FRF   1911      78                N/A     3/ 5
OREGON INLET NC  1900   80 78   10/ 10/ 15 1025.2F
HATTERAS NC      1900   80 80   30/ 11/ 17 1024.5F
DIAMOND SHLS NC  1950   80 85   30/ 17/ 19 1024.0F   4/ 8   2/ 8
CAPE LOOKOUT NC  2000   81      50/ 14/ 16 1023.8F
$$




USA.gov is the U.S. government's official web portal to all federal, state and local government web resources and services.